星链-30106 (STARLINK-30106 )

导读

STARLINK-30106是美国SpaceX公司星链计划中的卫星,于2023年4月19日发射升空。星链计划旨在构建全球卫星互联网星座,为全球偏远地区、海洋等网络覆盖薄弱区域提供高速互联网接入服务。该卫星加入了日益壮大的星链星座,进一步完善了星座的全球覆盖能力与服务稳定性。

基本信息
目录编号:
56288
目录名称:
STARLINK-30106
国际标识:
2023-056C
轨道中心:
EARTH
卫星名称:
星链-30106
卫星全名:
星链-30106 (STARLINK-30106 )
卫星状态:
在轨 (已飞行1234 天)
发射日期:
2023-04-19 UTC
国别 :
美国 (US)
星等 :
--
轨道信息
数据来源 国际轨道数据
星历时间: 2026-09-04T11:37:57+0800
9小时前
查看轨道信息
半长轴: 6861.187km
偏心率: 0.0001308
轨道倾角: 43.004°
近地点辐角 268.863°
升交点赤经 281.048°
平近点角 91.207°
近地点: 482.152km
远地点: 483.948km
周期: 94.267分钟
每日圈数: 15.2758
详细信息
固有亮度:
5
最大亮度:
0.3
卫星平台:
Starlink v2.0 mini
覆盖范围:
全球
运营商:
太空探索技术公司
运营商所在国:
美国
制造商(研发单位):
太空探索技术公司
制造商所在国:
美国
使用方式:
暂无
卫星简介
星链(Starlink)计划是由太空探索技术公司(SpaceX)提出的一个巨型低轨卫星互联网星座项目,计划在2019年至2024年间在太空搭建由约1.2万颗卫星组成的“星链”网络,其中1584颗将部署在地球上空550千米处的近地轨道,并从2020年开始工作。该卫星仍在工作。
2D轨道图
3D轨道图
轨道高度分析图
轨道倾角分析图
轨道综合分析图
查看轨道综合分析图
交会数据列表
事件ID 空间交会对象 最接近时刻(TCA) 交会距离 交会风险概率(CRP) 交会风险指数(CRI) 操作
CDM_260905-230005-628806-681421
2026-09-05T
23:00:41+0000
0.803 km
远距离
3.56099E-5 中风险 0.66
CDM_260906-032105-628806-687521
2026-09-06T
03:21:52+0000
0.934 km
远距离
2.529324E-5 中风险 0.63
CDM_260905-080605-628806-681421
2026-09-05T
08:06:13+0000
0.922 km
远距离
2.25074E-5 中风险 0.62
CDM_260905-094005-628806-681421
2026-09-05T
09:40:22+0000
1.052 km
极远距离
1.429235E-5 中风险 0.58
CDM_260906-014705-628806-687521
2026-09-06T
01:47:42+0000
2.213 km
极远距离
1.722259E-6 低风险 0.4
CDM_260905-212605-628806-681421
2026-09-05T
21:26:31+0000
2.227 km
极远距离
1.484987E-6 低风险 0.38
CDM_260906-003405-628806-681421
2026-09-06T
00:34:50+0000
2.664 km
极远距离
1.077412E-6 低风险 0.36
CDM_260905-063205-628806-681421
2026-09-05T
06:32:04+0000
2.798 km
极远距离
1.006176E-6 低风险 0.35